FW0577 Weather Reports


time (UTC)temp
C
wind
direction
speed
KPH
gust
KPH
rain 1hr
cm
rain 24hr
cm
rain mn
cm
humidity
%
barometer
mb
20260903023603 22 313 0.0 0.0 0.00 0.00 0.00 39 1011.4
20260903023320 22 313 0.0 8.0 0.00 0.00 0.00 39 1011.7
20260903022603 22 313 0.0 8.0 0.00 0.00 0.00 38 1011.4
20260903022104 22 304 0.0 0.0 0.00 0.00 0.00 37 1011.4
20260903021602 22 304 0.0 0.0 0.00 0.00 0.00 36 1011.4
20260903021102 23 304 0.0 0.0 0.00 0.00 0.00 35 1011.5
20260903020603 23 304 0.0 3.2 0.00 0.00 0.00 35 1011.4
20260903020115 23 304 0.0 3.2 0.00 0.00 0.00 35 1011.4
20260903015833 23 304 0.0 0.0 0.00 0.00 0.00 33 1011.7
20260903015103 23 304 0.0 0.0 0.00 0.00 0.00 32 1011.7
20260903014603 23 304 0.0 0.0 0.00 0.00 0.00 31 1011.7
20260903013603 24 304 0.0 0.0 0.00 0.00 0.00 32 1011.5
20260903013037 24 304 0.0 0.0 0.00 0.00 0.00 33 1011.7
20260903012531 25 304 0.0 0.0 0.00 0.00 0.00 35 1011.8
20260903012031 25 304 0.0 8.0 0.00 0.00 0.00 36 1011.7
20260903011530 25 304 0.0 8.0 0.00 0.00 0.00 36 1011.9
20260903011030 25 9 0.0 0.0 0.00 0.00 0.00 37 1011.7
20260903010030 25 221 0.0 0.0 0.00 0.00 0.00 37 1011.8
20260903005530 25 221 0.0 0.0 0.00 0.00 0.00 37 1011.7
20260903005032 25 221 0.0 1.6 0.00 0.00 0.00 38 1011.7
20260903002738 26 185 0.0 0.0 0.00 0.00 0.00 31 1011.8
20260903002010 26 185 0.0 3.2 0.00 0.00 0.00 31 1011.8
20260903001510 26 187 0.0 4.8 0.00 0.00 0.00 30 1011.8
20260903001010 26 186 0.0 4.8 0.00 0.00 0.00 29 1011.8
20260903000508 26 201 0.0 1.6 0.00 0.00 0.00 28 1011.7
20260903000008 26 201 0.0 3.2 0.00 0.00 0.00 28 1011.7
20260902235505 26 118 0.0 3.2 0.00 0.00 0.00 29 1011.9
20260902235004 26 118 0.0 3.2 0.00 0.00 0.00 28 1011.8
20260902234503 27 120 0.0 3.2 0.00 0.00 0.00 28 1011.7
20260902233957 27 121 0.0 9.7 0.00 0.00 0.00 28 1011.8
20260902233446 27 121 0.0 9.7 0.00 0.00 0.00 28 1012.0
20260902232935 28 111 0.0 6.4 0.00 0.00 0.00 26 1011.9
20260902232435 28 112 0.0 6.4 0.00 0.00 0.00 25 1012.0
20260902232155 28 340 0.0 6.4 0.00 0.00 0.00 23 1012.1
20260902231653 28 340 0.0 8.0 0.00 0.00 0.00 24 1012.1
20260902230930 28 49 0.0 8.0 0.00 0.00 0.00 23 1012.1
20260902230431 28 300 0.0 6.4 0.00 0.00 0.00 18 1012.2
20260902225931 28 254 0.0 6.4 0.00 0.00 0.00 18 1012.2
20260902225431 29 240 0.0 6.4 0.00 0.00 0.00 18 1012.3
20260902224656 29 228 0.0 6.4 0.00 0.00 0.00 17 1012.3
20260902223931 29 62 0.0 9.7 0.00 0.00 0.00 17 1012.3
20260902223431 29 279 0.0 9.7 0.00 0.00 0.00 17 1012.5
20260902222932 29 290 0.0 8.0 0.00 0.00 0.00 18 1012.6
20260902222431 29 132 0.0 8.0 0.00 0.00 0.00 19 1012.6
20260902221930 29 276 0.0 3.2 0.00 0.00 0.00 19 1012.7
20260902221651 29 312 0.0 1.6 0.00 0.00 0.00 20 1012.8
20260902220930 29 312 0.0 3.2 0.00 0.00 0.00 19 1012.8
20260902220443 29 310 0.0 3.2 0.00 0.00 0.00 18 1012.9
20260902215930 29 277 0.0 3.2 0.00 0.00 0.00 19 1013.0
20260902215431 29 273 1.6 11.3 0.00 0.00 0.00 20 1013.0
20260902214930 29 273 1.6 11.3 0.00 0.00 0.00 20 1013.1
20260902214430 29 182 0.0 8.0 0.00 0.00 0.00 19 1013.2
20260902213930 29 55 0.0 8.0 0.00 0.00 0.00 19 1013.2
20260902213430 29 257 0.0 11.3 0.00 0.00 0.00 20 1013.2
20260902212931 29 127 0.0 11.3 0.00 0.00 0.00 19 1013.1
20260902212430 29 112 0.0 6.4 0.00 0.00 0.00 19 1013.2
20260902211931 28 168 0.0 14.5 0.00 0.00 0.00 20 1013.3
20260902211431 28 190 0.0 14.5 0.00 0.00 0.00 21 1013.3
20260902210931 28 99 0.0 8.0 0.00 0.00 0.00 20 1013.4
20260902210430 29 101 0.0 8.0 0.00 0.00 0.00 19 1013.4
20260902205930 29 132 0.0 8.0 0.00 0.00 0.00 19 1013.5
20260902205430 29 59 0.0 4.8 0.00 0.00 0.00 20 1013.5
20260902204931 30 273 0.0 11.3 0.00 0.00 0.00 20 1013.5
20260902204431 29 267 0.0 11.3 0.00 0.00 0.00 20 1013.5
20260902203931 30 75 0.0 6.4 0.00 0.00 0.00 20 1013.5
20260902203652 30 52 0.0 6.4 0.00 0.00 0.00 19 1013.5
20260902202931 30 279 0.0 3.2 0.00 0.00 0.00 19 1013.6
20260902202430 29 272 0.0 9.7 0.00 0.00 0.00 20 1013.6
20260902201930 29 178 0.0 9.7 0.00 0.00 0.00 20 1013.6
20260902201652 29 303 0.0 6.4 0.00 0.00 0.00 19 1013.7
20260902200930 29 76 0.0 6.4 0.00 0.00 0.00 18 1013.8
20260902200430 29 75 0.0 6.4 0.00 0.00 0.00 22 1013.7
20260902195931 28 82 0.0 3.2 0.00 0.00 0.00 23 1013.7
20260902195430 28 83 0.0 1.6 0.00 0.00 0.00 24 1013.8
20260902194930 28 83 0.0 3.2 0.00 0.00 0.00 25 1013.8
20260902194431 28 84 0.0 3.2 0.00 0.00 0.00 25 1013.9
20260902193932 28 91 0.0 3.2 0.00 0.00 0.00 24 1013.9
20260902193431 28 212 0.0 8.0 0.00 0.00 0.00 24 1014.0
20260902192930 28 193 0.0 8.0 0.00 0.00 0.00 26 1014.1
20260902192430 27 160 0.0 6.4 0.00 0.00 0.00 26 1014.0
20260902191930 27 103 0.0 8.0 0.00 0.00 0.00 27 1014.0
20260902191430 27 93 0.0 8.0 0.00 0.00 0.00 27 1014.0
20260902190930 27 82 0.0 8.0 0.00 0.00 0.00 28 1014.0
20260902190407 28 101 0.0 8.0 0.00 0.00 0.00 28 1014.1
20260902185907 28 107 0.0 8.0 0.00 0.00 0.00 29 1014.1
20260902185640 28 78 0.0 6.4 0.00 0.00 0.00 30 1014.2
20260902185132 27 267 0.0 6.4 0.00 0.00 0.00 31 1014.2
20260902184402 27 97 0.0 8.0 0.00 0.00 0.00 31 1014.2
20260902184122 27 103 0.0 8.0 0.00 0.00 0.00 32 1014.1
20260902182904 27 65 0.0 1.6 0.00 0.00 0.00 32 1014.3
20260902182404 27 66 0.0 1.6 0.00 0.00 0.00 36 1014.2
20260902181904 27 66 0.0 4.8 0.00 0.00 0.00 35 1014.2
20260902181403 26 54 0.0 8.0 0.00 0.00 0.00 39 1014.1
20260902180904 26 9 0.0 8.0 0.00 0.00 0.00 39 1014.2
20260902180404 26 11 1.6 8.0 0.00 0.00 0.00 41 1014.0
20260902175904 25 28 0.0 6.4 0.00 0.00 0.00 42 1014.0
20260902175403 25 9 1.6 9.7 0.00 0.00 0.00 45 1014.0
20260902174902 24 5 3.2 11.3 0.00 0.00 0.00 45 1013.9
20260902174622 24 334 1.6 11.3 0.00 0.00 0.00 45 1013.9
20260902173904 25 51 0.0 8.0 0.00 0.00 0.00 46 1014.0
20260902173625 25 18 1.6 11.3 0.00 0.00 0.00 47 1014.0
20260902172904 24 5 1.6 11.3 0.00 0.00 0.00 48 1013.9
20260902172641 24 292 0.0 12.9 0.00 0.00 0.00 49 1013.9
20260902171902 24 355 0.0 12.9 0.00 0.00 0.00 49 1013.9
20260902171622 24 5 0.0 11.3 0.00 0.00 0.00 49 1013.9
20260902170904 23 13 0.0 11.3 0.00 0.00 0.00 51 1013.9
20260902170416 23 13 1.6 11.3 0.00 0.00 0.00 53 1013.9
20260902165903 22 13 1.6 9.7 0.00 0.00 0.00 53 1013.7
20260902165625 22 349 1.6 9.7 0.00 0.00 0.00 53 1013.6
20260902164902 22 5 1.6 9.7 0.00 0.00 0.00 53 1013.6
20260902164625 22 15 0.0 8.0 0.00 0.00 0.00 53 1013.6
20260902163916 23 14 0.0 8.0 0.00 0.00 0.00 53 1013.6
20260902163403 22 0 0.0 6.4 0.00 0.00 0.00 54 1013.5
20260902162902 22 0 0.0 3.2 0.00 0.00 0.00 56 1013.5
20260902162403 22 0 0.0 3.2 0.00 0.00 0.00 56 1013.5
20260902161903 22 355 0.0 3.2 0.00 0.00 0.00 55 1013.5
20260902161403 22 355 0.0 1.6 0.00 0.00 0.00 57 1013.7
20260902160831 21 355 0.0 8.0 0.00 0.00 0.00 59 1013.6
20260902160332 21 350 0.0 9.7 0.00 0.00 0.00 59 1013.5
20260902155831 21 350 0.0 9.7 0.00 0.00 0.00 58 1013.5
20260902155332 21 304 0.0 0.0 0.00 0.00 0.00 59 1013.6
20260902155049 21 304 0.0 0.0 0.00 0.00 0.00 62 1013.6
20260902154330 20 304 0.0 1.6 0.00 0.00 0.00 63 1013.5
20260902153829 20 304 0.0 1.6 0.00 0.00 0.00 64 1013.4
20260902153330 20 317 0.0 0.0 0.00 0.00 0.00 65 1013.3
20260902153117 19 317 0.0 1.6 0.00 0.00 0.00 69 1013.2
20260902152331 19 317 0.0 1.6 0.00 0.00 0.00 73 1013.2
20260902151830 18 317 0.0 0.0 0.00 0.00 0.00 76 1013.2
20260902151547 18 317 0.0 0.0 0.00 0.00 0.00 79 1013.1
20260902151454 18 317 0.0 0.0 0.00 0.00 0.00 79 1013.1
20260902150832 17 317 0.0 0.0 0.00 0.00 0.00 81 1013.1
20260902150331 17 317 0.0 0.0 0.00 0.00 0.00 83 1013.2
20260902145832 17 317 0.0 0.0 0.00 0.00 0.00 86 1013.0
20260902145332 16 317 0.0 0.0 0.00 0.00 0.00 87 1012.9
20260902144832 16 317 0.0 0.0 0.00 0.00 0.00 88 1012.9
20260902144552 16 317 0.0 0.0 0.00 0.00 0.00 88 1012.9
20260902143829 16 317 0.0 0.0 0.00 0.00 0.00 88 1012.8
20260902143331 16 317 0.0 0.0 0.00 0.00 0.00 88 1012.7
20260902142831 15 317 0.0 0.0 0.00 0.00 0.00 89 1012.8
20260902142331 15 317 0.0 0.0 0.00 0.00 0.00 88 1012.7
20260902141545 14 317 0.0 0.0 0.00 0.00 0.00 88 1012.7
20260902140808 14 317 0.0 0.0 0.00 0.00 0.00 88 1012.6
20260902140305 14 317 0.0 0.0 0.00 0.00 0.00 88 1012.6
20260902135803 14 317 0.0 0.0 0.00 0.00 0.00 88 1012.3
20260902135306 14 317 0.0 0.0 0.00 0.00 0.00 88 1012.2
20260902134806 14 317 0.0 0.0 0.00 0.00 0.00 88 1012.0
20260902134303 14 317 0.0 0.0 0.00 0.00 0.00 88 1012.0
20260902134020 14 317 0.0 0.0 0.00 0.00 0.00 88 1011.9
20260902133302 14 317 0.0 0.0 0.00 0.00 0.00 87 1012.0
20260902132801 14 317 0.0 0.0 0.00 0.00 0.00 87 1012.0
20260902132530 14 317 0.0 0.0 0.00 0.00 0.00 87 1012.0
20260902131802 14 317 0.0 0.0 0.00 0.00 0.00 87 1012.0
20260902131300 14 317 0.0 0.0 0.00 0.00 0.00 87 1011.9
20260902130802 14 317 0.0 0.0 0.00 0.00 0.00 87 1011.9
20260902130522 14 317 0.0 0.0 0.00 0.00 0.00 87 1011.9
20260902125801 14 317 0.0 0.0 0.00 0.00 0.00 87 1011.9
20260902125305 14 317 0.0 0.0 0.00 0.00 0.00 86 1011.9
20260902124801 14 317 0.0 0.0 0.00 0.00 0.00 86 1011.9
20260902124302 15 317 0.0 0.0 0.00 0.00 0.00 86 1011.9
20260902123801 15 317 0.0 0.0 0.00 0.00 0.00 86 1011.9
20260902122803 15 317 0.0 0.0 0.00 0.00 0.00 86 1011.9
20260902122305 15 317 0.0 0.0 0.00 0.00 0.00 86 1011.9
20260902121801 15 317 0.0 0.0 0.00 0.00 0.00 86 1012.0
20260902121303 15 317 0.0 0.0 0.00 0.00 0.00 85 1012.0
20260902120802 15 317 0.0 0.0 0.00 0.00 0.00 85 1012.0
20260902120302 15 317 0.0 0.0 0.00 0.00 0.00 85 1012.0
20260902115801 15 317 0.0 0.0 0.00 0.00 0.00 85 1011.9
20260902115306 15 317 0.0 0.0 0.00 0.00 0.00 85 1012.0
20260902114802 15 317 0.0 0.0 0.00 0.00 0.00 85 1012.0
20260902114520 15 317 0.0 0.0 0.00 0.00 0.00 85 1012.0
20260902113802 15 317 0.0 0.0 0.00 0.00 0.00 85 1012.0
20260902112802 15 317 0.0 0.0 0.00 0.00 0.00 84 1011.9
20260902112305 15 317 0.0 0.0 0.00 0.00 0.00 83 1011.9
20260902111801 15 317 0.0 0.0 0.00 0.00 0.00 83 1011.8
20260902111541 15 317 0.0 0.0 0.00 0.00 0.00 82 1011.8
20260902110800 15 317 0.0 0.0 0.00 0.00 0.00 81 1011.7
20260902110300 15 317 0.0 0.0 0.00 0.00 0.00 81 1011.8
20260902110019 15 317 0.0 0.0 0.00 0.00 0.00 81 1011.7
20260902105526 15 317 0.0 0.0 0.00 0.00 0.00 81 1011.7
20260902105029 15 317 0.0 0.0 0.00 0.00 0.00 80 1011.5
20260902104302 15 317 0.0 0.0 0.00 0.00 0.00 79 1011.4
20260902103801 14 317 0.0 0.0 0.00 0.00 0.00 78 1011.8
20260902103301 14 317 0.0 0.0 0.00 0.00 0.00 76 1011.5
20260902102803 14 317 0.0 0.0 0.00 0.00 0.00 75 1011.7
20260902102307 14 317 0.0 0.0 0.00 0.00 0.00 75 1011.7
20260902102030 14 317 0.0 0.0 0.00 0.00 0.00 74 1011.7
20260902101301 14 317 0.0 0.0 0.00 0.00 0.00 74 1011.7
20260902100800 14 317 0.0 0.0 0.00 0.00 0.00 74 1011.7
20260902100234 14 317 0.0 0.0 0.00 0.00 0.00 73 1011.5
20260902095730 14 317 0.0 0.0 0.00 0.00 0.00 73 1011.4
20260902095229 14 317 0.0 0.0 0.00 0.00 0.00 72 1011.5
20260902094729 15 317 0.0 0.0 0.00 0.00 0.00 72 1011.5
20260902094453 15 317 0.0 0.0 0.00 0.00 0.00 72 1011.5
20260902093729 15 317 0.0 0.0 0.00 0.00 0.00 72 1011.5
20260902093451 15 317 0.0 0.0 0.00 0.00 0.00 71 1011.5
20260902092728 15 317 0.0 0.0 0.00 0.00 0.00 71 1011.7
20260902092231 15 317 0.0 0.0 0.00 0.00 0.00 71 1011.7
20260902091729 15 317 0.0 0.0 0.00 0.00 0.00 70 1011.8
20260902091229 15 317 0.0 0.0 0.00 0.00 0.00 69 1011.8
20260902090953 15 317 0.0 0.0 0.00 0.00 0.00 69 1011.8
20260902085951 15 317 0.0 0.0 0.00 0.00 0.00 68 1011.8
20260902085231 15 317 0.0 0.0 0.00 0.00 0.00 68 1011.8
20260902084730 15 317 0.0 0.0 0.00 0.00 0.00 68 1011.9
20260902084229 15 317 0.0 0.0 0.00 0.00 0.00 67 1011.8
20260902083725 15 317 0.0 0.0 0.00 0.00 0.00 68 1011.8
20260902083215 16 317 0.0 0.0 0.00 0.00 0.00 68 1011.8
20260902082705 16 317 0.0 0.0 0.00 0.00 0.00 67 1011.8
20260902082203 16 317 0.0 0.0 0.00 0.00 0.00 67 1011.8
20260902081703 16 317 0.0 0.0 0.00 0.00 0.00 66 1011.7
20260902081203 16 317 0.0 0.0 0.00 0.00 0.00 66 1011.7
20260902080715 16 317 0.0 0.0 0.00 0.00 0.00 65 1011.8
20260902075701 16 317 0.0 0.0 0.00 0.00 0.00 64 1011.8
20260902075202 16 317 0.0 0.0 0.00 0.00 0.00 64 1011.8
20260902074703 16 317 0.0 0.0 0.00 0.00 0.00 64 1011.7
20260902074201 16 317 0.0 0.0 0.00 0.00 0.00 64 1011.7
20260902073703 16 317 0.0 0.0 0.00 0.00 0.00 65 1011.5
20260902073202 16 317 0.0 0.0 0.00 0.00 0.00 66 1011.7
20260902072702 16 317 0.0 0.0 0.00 0.00 0.00 67 1011.7
20260902072200 16 317 0.0 0.0 0.00 0.00 0.00 67 1011.5
20260902071920 16 317 0.0 0.0 0.00 0.00 0.00 67 1011.4
20260902071202 16 317 0.0 0.0 0.00 0.00 0.00 67 1011.4
20260902070702 16 317 0.0 0.0 0.00 0.00 0.00 66 1011.7
20260902070202 16 317 0.0 0.0 0.00 0.00 0.00 65 1011.4
20260902065701 16 317 0.0 0.0 0.00 0.00 0.00 65 1011.3
20260902065201 16 317 0.0 0.0 0.00 0.00 0.00 64 1011.3
20260902064202 17 317 0.0 0.0 0.00 0.00 0.00 64 1011.3
20260902063702 17 317 0.0 0.0 0.00 0.00 0.00 64 1011.3
20260902063202 17 317 0.0 0.0 0.00 0.00 0.00 64 1011.3
20260902062701 17 317 0.0 0.0 0.00 0.00 0.00 65 1011.3
20260902062420 16 317 0.0 0.0 0.00 0.00 0.00 65 1011.2
20260902061921 16 317 0.0 0.0 0.00 0.00 0.00 64 1011.2
20260902061202 16 317 0.0 0.0 0.00 0.00 0.00 65 1011.1
20260902060702 16 317 0.0 0.0 0.00 0.00 0.00 65 1011.1
20260902060200 16 317 0.0 0.0 0.00 0.00 0.00 64 1011.1
20260902055702 16 317 0.0 0.0 0.00 0.00 0.00 64 1011.3
20260902055204 17 317 0.0 0.0 0.00 0.00 0.00 64 1011.3
20260902054702 17 317 0.0 0.0 0.00 0.00 0.00 63 1011.3
20260902054202 17 317 0.0 0.0 0.00 0.00 0.00 63 1011.3
20260902053703 17 317 0.0 0.0 0.00 0.00 0.00 64 1011.5
20260902053201 17 317 0.0 0.0 0.00 0.00 0.00 64 1011.5
20260902052702 17 317 0.0 0.0 0.00 0.00 0.00 63 1011.5
20260902052431 17 317 0.0 0.0 0.00 0.00 0.00 63 1011.5
20260902051703 17 317 0.0 0.0 0.00 0.00 0.00 64 1011.5
20260902051202 17 317 0.0 0.0 0.00 0.00 0.00 63 1011.5
20260902050701 17 317 0.0 0.0 0.00 0.00 0.00 63 1011.5
20260902050203 17 317 0.0 0.0 0.00 0.00 0.00 62 1011.4
20260902045700 17 317 0.0 0.0 0.00 0.00 0.00 61 1011.7
20260902044702 17 317 0.0 0.0 0.00 0.00 0.00 59 1011.7
20260902044203 17 317 0.0 0.0 0.00 0.00 0.00 59 1011.7
20260902043701 17 317 0.0 0.0 0.00 0.00 0.00 59 1011.5
20260902043428 18 317 0.0 0.0 0.00 0.00 0.00 59 1011.4
20260902042701 18 317 0.0 0.0 0.00 0.00 0.00 58 1011.4
20260902042201 18 317 0.0 0.0 0.00 0.00 0.00 56 1011.4
20260902041654 18 317 0.0 0.0 0.00 0.00 0.00 55 1011.3
20260902041132 18 317 0.0 0.0 0.00 0.00 0.00 54 1011.2
20260902040631 18 317 0.0 0.0 0.00 0.00 0.00 53 1011.2
20260902040131 18 317 0.0 0.0 0.00 0.00 0.00 52 1011.1
20260902035630 18 317 0.0 0.0 0.00 0.00 0.00 50 1011.3
20260902035118 18 317 0.0 0.0 0.00 0.00 0.00 48 1011.2
20260902034604 18 317 0.0 0.0 0.00 0.00 0.00 48 1011.2
20260902034104 18 317 0.0 0.0 0.00 0.00 0.00 47 1011.0
20260902033103 18 317 0.0 0.0 0.00 0.00 0.00 44 1010.9
20260902032603 19 317 0.0 0.0 0.00 0.00 0.00 44 1010.8
20260902032102 19 317 0.0 0.0 0.00 0.00 0.00 43 1010.8
20260902031602 19 317 0.0 0.0 0.00 0.00 0.00 42 1010.9
20260902031329 20 317 0.0 0.0 0.00 0.00 0.00 42 1010.8
20260902030604 20 317 0.0 0.0 0.00 0.00 0.00 41 1010.9
20260902030107 20 317 0.0 0.0 0.00 0.00 0.00 41 1010.8
20260902025603 20 317 0.0 0.0 0.00 0.00 0.00 38 1011.1
20260902025102 20 317 0.0 0.0 0.00 0.00 0.00 36 1011.0
20260902024602 21 317 0.0 0.0 0.00 0.00 0.00 35 1011.0
20260902024102 21 317 0.0 0.0 0.00 0.00 0.00 34 1010.9